DW0307 Weather Reports


Display with metric or nautical units.
time (UTC)temp
F
wind
direction
speed
MPH
gust
MPH
rain 1hr
in
rain 24hr
in
rain mn
in
humidity
%
barometer
mb
20260507220052 51 0 0.0 1.0 0.00 0.34 0.00 91 1014.8
20260507214551 51 0 0.0 0.0 0.00 0.34 0.34 91 1014.7
20260507213048 51 0 0.0 1.0 0.00 0.34 0.34 91 1014.7
20260507211547 51 0 0.0 3.0 0.00 0.34 0.34 90 1014.7
20260507210045 51 0 0.0 0.0 0.01 0.34 0.34 90 1014.6
20260507204553 52 318 0.0 2.0 0.02 0.34 0.34 90 1014.6
20260507203045 52 0 0.0 2.0 0.02 0.33 0.33 90 1014.5
20260507201553 52 0 0.0 2.0 0.02 0.33 0.33 90 1014.3
20260507200045 52 0 0.0 2.0 0.01 0.33 0.33 90 1014.4
20260507194544 52 318 3.0 4.0 0.00 0.32 0.32 90 1014.4
20260507193047 52 36 0.0 2.0 0.00 0.31 0.31 90 1014.5
20260507191550 52 0 0.0 3.0 0.00 0.31 0.31 90 1014.2
20260507190052 52 49 1.0 3.0 0.02 0.31 0.31 90 1014.0
20260507184550 52 49 1.0 3.0 0.04 0.31 0.31 90 1014.0
20260507183051 53 49 2.0 6.0 0.05 0.30 0.30 90 1013.7
20260507181601 53 15 0.0 2.0 0.07 0.30 0.30 90 1013.8
20260507180043 53 15 1.0 3.0 0.07 0.29 0.29 90 1013.7
20260507174555 53 0 1.0 5.0 0.06 0.26 0.26 89 1013.6
20260507173048 53 257 2.0 5.0 0.04 0.25 0.25 89 1013.5
20260507171553 53 0 0.0 7.0 0.03 0.22 0.22 89 1013.4
20260507170050 53 302 2.0 5.0 0.07 0.21 0.21 89 1013.2
20260507164542 53 229 0.0 4.0 0.14 0.20 0.20 88 1013.2
20260507163043 53 230 5.0 7.0 0.15 0.20 0.20 88 1013.1
20260507161550 53 248 4.0 8.0 0.13 0.18 0.18 87 1013.0
20260507160047 54 242 9.0 13.0 0.08 0.13 0.13 86 1013.2
20260507154549 55 271 14.0 22.0 0.00 0.05 0.05 82 1013.0
20260507153052 58 255 13.0 17.0 0.00 0.04 0.04 79 1012.6
20260507151543 59 251 9.0 13.0 0.00 0.04 0.04 78 1012.6
20260507150043 59 238 9.0 13.0 0.00 0.04 0.04 79 1012.7
20260507144548 59 218 6.0 10.0 0.02 0.04 0.04 81 1012.6
20260507143048 58 196 3.0 8.0 0.02 0.04 0.04 81 1012.8
20260507141544 57 235 2.0 11.0 0.02 0.04 0.04 79 1012.7
20260507140049 59 219 7.0 15.0 0.01 0.03 0.03 74 1012.5
20260507134544 62 219 13.0 21.0 0.00 0.02 0.02 68 1012.5
20260507133052 63 247 11.0 15.0 0.00 0.02 0.02 67 1012.2
20260507131600 64 240 8.0 14.0 0.00 0.02 0.02 67 1012.4
20260507130105 63 245 13.0 20.0 0.00 0.02 0.02 69 1012.4
20260507124552 65 233 8.0 15.0 0.00 0.02 0.02 65 1012.3
20260507123043 65 128 9.0 16.0 0.00 0.02 0.02 63 1012.0
20260507121602 65 205 9.0 16.0 0.00 0.02 0.02 64 1012.2
20260507120055 65 188 8.0 15.0 0.00 0.02 0.02 65 1012.5
20260507114604 64 167 9.0 17.0 0.00 0.02 0.02 66 1012.3
20260507113045 65 159 9.0 17.0 0.00 0.02 0.02 65 1012.5
20260507111544 65 217 13.0 20.0 0.00 0.02 0.02 64 1012.5
20260507110043 66 219 7.0 15.0 0.00 0.02 0.02 61 1012.2
20260507104543 67 192 11.0 18.0 0.00 0.02 0.02 60 1012.3
20260507103043 66 199 11.0 17.0 0.00 0.02 0.02 60 1012.1
20260507101546 67 214 8.0 15.0 0.00 0.02 0.02 60 1012.1
20260507100044 67 206 10.0 20.0 0.00 0.02 0.02 61 1012.1
20260507094544 65 200 9.0 20.0 0.00 0.02 0.02 63 1011.9
20260507093049 66 195 10.0 16.0 0.00 0.02 0.02 62 1012.0
20260507091552 64 213 14.0 20.0 0.00 0.02 0.02 61 1011.9
20260507090047 66 208 12.0 21.0 0.00 0.02 0.02 62 1011.7
20260507084547 65 217 13.0 19.0 0.00 0.02 0.02 62 1011.4
20260507083044 65 245 16.0 21.0 0.00 0.02 0.02 62 1011.4
20260507081548 65 240 15.0 21.0 0.00 0.02 0.02 63 1011.3
20260507080051 64 245 14.0 22.0 0.00 0.02 0.02 64 1011.5
20260507074600 64 216 14.0 21.0 0.00 0.02 0.02 64 1011.4
20260507073043 64 236 13.0 17.0 0.00 0.02 0.02 65 1011.3
20260507071543 63 242 8.0 14.0 0.00 0.02 0.02 69 1011.2
20260507070043 62 233 10.0 16.0 0.00 0.02 0.02 72 1011.2
20260507064550 60 234 9.0 17.0 0.00 0.02 0.02 73 1011.1
20260507063054 60 229 9.0 16.0 0.00 0.02 0.02 74 1011.0
20260507061544 59 222 8.0 14.0 0.00 0.02 0.02 77 1010.8
20260507060045 58 224 12.0 17.0 0.00 0.02 0.02 76 1010.9
20260507054604 58 221 8.0 14.0 0.00 0.02 0.02 77 1010.9
20260507053052 57 215 8.0 14.0 0.00 0.02 0.02 77 1010.6
20260507051542 57 217 8.0 17.0 0.00 0.02 0.02 77 1010.6
20260507050054 56 228 10.0 16.0 0.00 0.02 0.02 78 1010.6
20260507044549 56 211 9.0 16.0 0.00 0.02 0.02 79 1010.3
20260507043050 55 205 8.0 14.0 0.00 0.02 0.02 80 1010.2
20260507041548 54 219 8.0 12.0 0.00 0.02 0.02 80 1010.2
20260507040051 54 212 8.0 12.0 0.00 0.02 0.02 81 1010.2
20260507034555 54 238 6.0 10.0 0.00 0.02 0.02 81 1010.3
20260507033051 54 219 6.0 9.0 0.00 0.02 0.02 81 1010.4
20260507031605 55 214 7.0 11.0 0.00 0.02 0.02 80 1010.4
20260507030055 55 219 6.0 9.0 0.00 0.02 0.02 81 1010.6
20260507024553 55 215 6.0 10.0 0.00 0.02 0.02 80 1010.7
20260507023054 56 238 6.0 11.0 0.00 0.02 0.02 80 1010.8
20260507021547 56 231 7.0 11.0 0.00 0.02 0.02 81 1010.8
20260507020050 56 221 7.0 12.0 0.00 0.02 0.02 81 1011.0
20260507014550 56 213 9.0 15.0 0.00 0.02 0.02 82 1010.9
20260507013045 56 215 9.0 15.0 0.00 0.02 0.02 84 1010.8
20260507011549 56 215 8.0 15.0 0.00 0.02 0.02 84 1010.7
20260507010044 56 190 8.0 15.0 0.00 0.02 0.02 85 1010.1
20260507004544 55 193 8.0 11.0 0.00 0.02 0.02 84 1009.7
20260507003051 55 216 8.0 14.0 0.00 0.02 0.02 84 1009.9
20260507001551 56 216 10.0 15.0 0.00 0.02 0.02 84 1010.3
20260507000051 55 236 11.0 18.0 0.00 0.02 0.02 85 1010.2
20260506234550 56 233 14.0 19.0 0.02 0.02 0.02 84 1010.3
20260506233108 56 223 8.0 14.0 0.02 0.02 0.02 84 1010.6
20260506231556 56 232 12.0 23.0 0.02 0.02 0.02 83 1010.9
20260506230053 58 223 16.0 33.0 0.01 0.01 0.01 79 1010.9
20260506224546 61 242 19.0 25.0 0.00 0.00 0.00 71 1010.5
20260506223053 61 227 11.0 18.0 0.00 0.00 0.00 68 1010.2
20260506221553 61 248 9.0 19.0 0.00 0.00 0.00 67 1010.2